Weather History for Upington, South Africa

Change the Weather History Date:

Tuesday, January 15, 2013

  Actual Average Record
Temperature  
Mean Temperature 88 °F -  
Max Temperature 106 °F 93 °F 106 °F (2013)
Min Temperature 71 °F 66 °F 53 °F (2001)
Cooling Degree Days 24    
Growing Degree Days 38 (Base 50)    
Moisture  
Dew Point 42 °F    
Average Humidity 20    
Maximum Humidity 43    
Minimum Humidity 6    
Precipitation  
Precipitation 0.00 in 0.04 in - ()
Sea Level Pressure  
Sea Level Pressure 29.88 in    
Wind  
Wind Speed 5 mph ()    
Max Wind Speed 9 mph    
Max Gust Speed -    
Visibility 6.2 miles    
Events      
Averages and records for this station are not official NWS values.
T = Trace of Precipitation, MM = Missing Value Source: Averaged Metar Reports

Daily Weather History Graph

Daily Weather History Graph

Search for Another Location

Airport:

Trip Planner

Search our weather history database for the weather conditions in past years. The results will help you decide how hot, cold, wet, or windy it might be!

Date:

Astronomy

Jan. 15, 2013 Rise Set
Actual Time 5:51 AM SAST 7:36 PM SAST
Civil Twilight 5:25 AM SAST 8:02 PM SAST
Nautical Twilight 4:54 AM SAST 8:34 PM SAST
Astronomical Twilight 4:20 AM SAST 9:07 PM SAST
Moon 9:36 AM SAST (1/15) 10:05 PM SAST (1/15)
Length of Visible Light 14h 37m
Length of Day
13h 44m
Waxing Crescent, 16% of the Moon is Illuminated
Jan 15
Waxing Crescent
Jan 19
First Quarter
Jan 27
Full
Feb 3
Last Quarter
Feb 10
New

Hourly Weather History & Observations

Time (SAST) Temp. Dew Point Humidity Pressure Visibility Wind Dir Wind Speed Gust Speed Precip Events Conditions
12:00 AM 80.6 °F 37.4 °F 21% 29.86 in - SSW 5.8 mph - N/A   Unknown
1:00 AM 78.8 °F 33.8 °F 20% 29.89 in - SW 8.1 mph - N/A   Clear
2:00 AM 78 °F 36 °F 13%  in 25 mi SSW 5.8 mph - -  
2:00 AM 77.0 °F 35.6 °F 22% 29.89 in - SSW 4.6 mph - N/A   Clear
3:00 AM 73.4 °F 41.0 °F 31% 29.89 in - SSW 5.8 mph - N/A   Clear
4:00 AM 71.6 °F 44.6 °F 38% 29.86 in - SW 5.8 mph - N/A   Clear
5:00 AM 73 °F 47 °F 28%  in 25 mi SW 4.6 mph - -   Scattered Clouds
5:00 AM 71.6 °F 46.4 °F 41% 29.89 in - SW 4.6 mph - N/A   Clear
6:00 AM 71.6 °F 48.2 °F 43% 29.89 in - SW 5.8 mph - N/A   Clear
7:00 AM 75.2 °F 46.4 °F 36% 29.92 in 6.2 mi SW 3.5 mph - N/A   Partly Cloudy
7:19 AM 78.8 °F 46.4 °F 32% 29.92 in 6.2 mi SW 4.6 mph - N/A   Partly Cloudy
8:00 AM 81 °F 47 °F 20%  in 25 mi SW 3.5 mph - -   Scattered Clouds
8:00 AM 80.6 °F 46.4 °F 30% 29.92 in 6.2 mi SW 2.3 mph - N/A   Mostly Cloudy
9:00 AM 86.0 °F 46.4 °F 25% 29.92 in 6.2 mi Calm Calm - N/A   Mostly Cloudy
10:00 AM 93.2 °F 50.0 °F 23% 29.92 in 6.2 mi SSE 5.8 mph - N/A   Scattered Clouds
11:00 AM 97 °F 49 °F 12%  in 25 mi ESE 4.6 mph - -   Scattered Clouds
11:00 AM 96.8 °F 48.2 °F 19% 29.89 in 6.2 mi ESE 3.5 mph - N/A   Scattered Clouds
12:00 PM 98.6 °F 44.6 °F 16% 29.92 in 6.2 mi East 3.5 mph - N/A   Scattered Clouds
1:00 PM 100.4 °F 39.2 °F 12% 29.89 in 6.2 mi East 3.5 mph - N/A   Partly Cloudy
2:00 PM 104 °F 42 °F 6%  in 25 mi SE 8.1 mph - -   Partly Cloudy
2:00 PM 102.2 °F 41.0 °F 12% 29.89 in 6.2 mi SE 8.1 mph - N/A   Partly Cloudy
3:00 PM 104.0 °F 37.4 °F 10% 29.86 in 6.2 mi SE 5.8 mph - N/A   Scattered Clouds
4:00 PM 105.8 °F 41.0 °F 11% 29.83 in 6.2 mi SE 5.8 mph - N/A   Scattered Clouds
5:00 PM 105 °F 41 °F 6%  in 25 mi South 6.9 mph - -   Scattered Clouds
5:00 PM 104.0 °F 41.0 °F 12% 29.80 in 6.2 mi South 5.8 mph - N/A   Partly Cloudy
6:00 PM 102.2 °F 37.4 °F 11% 29.83 in 6.2 mi SW 6.9 mph - N/A   Partly Cloudy
7:00 PM 102.2 °F 37.4 °F 11% 29.83 in 6.2 mi SSW 9.2 mph - N/A   Partly Cloudy
8:00 PM 96 °F 38 °F 7%  in 25 mi SSW 6.9 mph - -   Partly Cloudy
8:00 PM 95.0 °F 37.4 °F 13% 29.86 in 6.2 mi SSW 5.8 mph - N/A   Scattered Clouds
9:00 PM 89.6 °F 39.2 °F 17% 29.86 in - South 4.6 mph - N/A   Unknown
10:00 PM 91.4 °F 39.2 °F 16% 29.86 in - SSE 6.9 mph - N/A   Unknown
11:00 PM 91 °F 45 °F 12%  in - ESE 5.8 mph - -  
11:00 PM 89.6 °F 44.6 °F 21% 29.89 in - ESE 5.8 mph - N/A   Unknown